When you browse on this site, cookies collect data to enhance your experience and personalize the content and advertising you see.
Visit our Privacy Policy to learn more. By continuing to use the site, you agree to this use of cookies and data.
  • In Deutschland
  • Länderverzeichnis
  • Für 7 Tage
  • Wassertemperatur
  • Wetterkarte
  • Widgets
  • user-avatar
    Anmelden

    Stündliche Wetter Laskowizna

    Heute, 2 Juni, Dienstag

    Zeit Temperatur Niederschläge Wind Luftdruck Luftfeuchtigkeit
    00:00 +8°C° 0.2 mm 3 m/S 752 mmHg 90%
    01:00 +8°C° 0.2 mm 3 m/S 752 mmHg 92%
    02:00 +7°C° 0 mm 3 m/S 752 mmHg 92%
    03:00 +7°C° 0 mm 3 m/S 751 mmHg 93%
    04:00 +5°C° 0 mm 3 m/S 751 mmHg 93%
    05:00 +7°C° 0 mm 4 m/S 751 mmHg 86%
    06:00 +9°C° 0 mm 5 m/S 751 mmHg 79%
    07:00 +10°C° 0 mm 5 m/S 751 mmHg 72%
    08:00 +11°C° 0 mm 6 m/S 751 mmHg 67%
    09:00 +14°C° 0 mm 6 m/S 750 mmHg 62%
    10:00 +15°C° 0 mm 7 m/S 750 mmHg 58%
    11:00 +16°C° 0 mm 7 m/S 750 mmHg 57%
    12:00 +16°C° 0 mm 7 m/S 750 mmHg 57%
    13:00 +17°C° 0 mm 7 m/S 749 mmHg 57%
    14:00 +17°C° 0.2 mm 7 m/S 749 mmHg 59%
    15:00 +16°C° 0.2 mm 6 m/S 748 mmHg 62%
    16:00 +16°C° 0.2 mm 6 m/S 748 mmHg 64%
    17:00 +15°C° 0.1 mm 5 m/S 748 mmHg 68%
    18:00 +14°C° 0.1 mm 5 m/S 747 mmHg 73%
    19:00 +13°C° 0.1 mm 4 m/S 747 mmHg 77%
    20:00 +11°C° 0 mm 3 m/S 747 mmHg 82%
    21:00 +10°C° 0 mm 3 m/S 747 mmHg 86%
    22:00 +9°C° 0 mm 2 m/S 747 mmHg 91%
    23:00 +8°C° 0 mm 2 m/S 747 mmHg 92%

    Morgen, 3 Juni, Mittwoch

    Zeit Temperatur Niederschläge Wind Luftdruck Luftfeuchtigkeit
    00:00 +8°C° 0 mm 2 m/S 746 mmHg 93%
    01:00 +7°C° 0 mm 2 m/S 746 mmHg 94%
    02:00 +7°C° 0 mm 3 m/S 746 mmHg 93%
    03:00 +7°C° 0 mm 3 m/S 745 mmHg 91%
    04:00 +7°C° 0 mm 3 m/S 745 mmHg 90%
    05:00 +8°C° 0.2 mm 3 m/S 745 mmHg 90%
    06:00 +9°C° 0.2 mm 3 m/S 745 mmHg 89%
    07:00 +10°C° 0.2 mm 3 m/S 745 mmHg 88%
    08:00 +10°C° 0.1 mm 4 m/S 745 mmHg 88%
    09:00 +11°C° 0.1 mm 4 m/S 745 mmHg 87%
    10:00 +11°C° 0.1 mm 4 m/S 744 mmHg 87%
    11:00 +12°C° 0.3 mm 4 m/S 744 mmHg 82%
    12:00 +13°C° 0.3 mm 4 m/S 744 mmHg 78%
    13:00 +15°C° 0.3 mm 5 m/S 744 mmHg 73%
    14:00 +15°C° 0.3 mm 5 m/S 743 mmHg 72%
    15:00 +15°C° 0.3 mm 5 m/S 743 mmHg 72%
    16:00 +15°C° 0.3 mm 5 m/S 743 mmHg 71%
    17:00 +14°C° 0.2 mm 4 m/S 743 mmHg 76%
    18:00 +13°C° 0.2 mm 3 m/S 742 mmHg 82%
    19:00 +12°C° 0.2 mm 3 m/S 742 mmHg 87%
    20:00 +12°C° 0.1 mm 2 m/S 742 mmHg 89%
    21:00 +10°C° 0.1 mm 2 m/S 742 mmHg 91%
    22:00 +9°C° 0.1 mm 2 m/S 742 mmHg 93%
    23:00 +9°C° 0 mm 2 m/S 742 mmHg 94%

    übermorgen, 4 Juni, Donnerstag

    Zeit Temperatur Niederschläge Wind Luftdruck Luftfeuchtigkeit
    00:00 +8°C° 0 mm 2 m/S 742 mmHg 94%
    01:00 +8°C° 0 mm 2 m/S 742 mmHg 94%
    02:00 +8°C° 0 mm 2 m/S 742 mmHg 95%
    03:00 +7°C° 0 mm 2 m/S 741 mmHg 95%
    04:00 +7°C° 0 mm 2 m/S 741 mmHg 95%
    05:00 +9°C° 0 mm 2 m/S 741 mmHg 92%
    06:00 +10°C° 0 mm 2 m/S 741 mmHg 88%
    07:00 +13°C° 0 mm 2 m/S 741 mmHg 85%
    08:00 +14°C° 0.3 mm 2 m/S 741 mmHg 78%
    09:00 +16°C° 0.3 mm 2 m/S 741 mmHg 72%
    10:00 +17°C° 0.3 mm 2 m/S 741 mmHg 65%
    11:00 +18°C° 0.5 mm 2 m/S 740 mmHg 65%
    12:00 +18°C° 0.5 mm 2 m/S 740 mmHg 64%
    13:00 +19°C° 0.5 mm 2 m/S 740 mmHg 64%
    14:00 +19°C° 0.2 mm 2 m/S 740 mmHg 63%
    15:00 +19°C° 0.2 mm 2 m/S 740 mmHg 62%
    16:00 +19°C° 0.2 mm 2 m/S 739 mmHg 62%
    17:00 +18°C° 0 mm 2 m/S 739 mmHg 66%
    18:00 +18°C° 0 mm 1 m/S 739 mmHg 71%
    19:00 +16°C° 0 mm 1 m/S 739 mmHg 76%
    20:00 +15°C° 0 mm 1 m/S 739 mmHg 79%
    21:00 +14°C° 0 mm 2 m/S 739 mmHg 83%
    22:00 +13°C° 0 mm 2 m/S 739 mmHg 86%
    23:00 +12°C° 0 mm 2 m/S 739 mmHg 88%

    5 Juni, Freitag

    Zeit Temperatur Niederschläge Wind Luftdruck Luftfeuchtigkeit
    00:00 +12°C° 0 mm 2 m/S 739 mmHg 90%
    01:00 +10°C° 0 mm 2 m/S 739 mmHg 91%
    02:00 +10°C° 0 mm 3 m/S 739 mmHg 91%
    03:00 +10°C° 0 mm 3 m/S 739 mmHg 92%
    04:00 +10°C° 0 mm 3 m/S 738 mmHg 92%
    05:00 +11°C° 0 mm 4 m/S 738 mmHg 86%
    06:00 +13°C° 0 mm 5 m/S 738 mmHg 81%
    07:00 +15°C° 0 mm 5 m/S 738 mmHg 76%
    08:00 +17°C° 0 mm 6 m/S 738 mmHg 75%
    09:00 +19°C° 0 mm 6 m/S 738 mmHg 75%
    10:00 +20°C° 0 mm 6 m/S 738 mmHg 74%
    11:00 +21°C° 0.1 mm 6 m/S 737 mmHg 74%
    12:00 +21°C° 0.1 mm 6 m/S 737 mmHg 74%
    13:00 +21°C° 0.1 mm 5 m/S 737 mmHg 74%
    14:00 +22°C° 0.2 mm 5 m/S 737 mmHg 73%
    15:00 +22°C° 0.2 mm 5 m/S 737 mmHg 72%
    16:00 +23°C° 0.2 mm 5 m/S 737 mmHg 71%
    17:00 +21°C° 0.7 mm 4 m/S 737 mmHg 77%
    18:00 +20°C° 0.7 mm 4 m/S 737 mmHg 83%
    19:00 +19°C° 0.7 mm 3 m/S 737 mmHg 89%
    20:00 +18°C° 0.4 mm 3 m/S 737 mmHg 90%
    21:00 +18°C° 0.4 mm 3 m/S 737 mmHg 92%
    22:00 +17°C° 0.4 mm 3 m/S 738 mmHg 93%
    23:00 +16°C° 0.1 mm 3 m/S 738 mmHg 94%

    6 Juni, Samstag

    Zeit Temperatur Niederschläge Wind Luftdruck Luftfeuchtigkeit
    00:00 +16°C° 0.1 mm 3 m/S 738 mmHg 95%
    01:00 +15°C° 0.1 mm 2 m/S 738 mmHg 96%
    02:00 +14°C° 0.5 mm 3 m/S 738 mmHg 96%
    03:00 +13°C° 0.5 mm 4 m/S 739 mmHg 96%
    04:00 +13°C° 0.5 mm 5 m/S 739 mmHg 96%
    05:00 +12°C° 1.7 mm 5 m/S 739 mmHg 96%
    06:00 +10°C° 1.7 mm 6 m/S 740 mmHg 95%
    07:00 +9°C° 1.7 mm 6 m/S 740 mmHg 94%
    08:00 +10°C° 0.2 mm 6 m/S 741 mmHg 93%
    09:00 +10°C° 0.2 mm 5 m/S 741 mmHg 91%
    10:00 +10°C° 0.2 mm 5 m/S 742 mmHg 89%
    11:00 +13°C° 0 mm 5 m/S 742 mmHg 83%
    12:00 +14°C° 0 mm 4 m/S 742 mmHg 76%
    13:00 +15°C° 0 mm 4 m/S 743 mmHg 70%
    14:00 +17°C° 0.1 mm 4 m/S 743 mmHg 68%
    15:00 +18°C° 0.1 mm 3 m/S 743 mmHg 67%
    16:00 +18°C° 0.1 mm 3 m/S 743 mmHg 65%
    17:00 +17°C° 0.1 mm 2 m/S 744 mmHg 71%
    18:00 +16°C° 0.1 mm 2 m/S 744 mmHg 76%
    19:00 +15°C° 0.1 mm 1 m/S 744 mmHg 82%
    20:00 +14°C° 0 mm 1 m/S 744 mmHg 85%
    21:00 +13°C° 0 mm 1 m/S 745 mmHg 88%
    22:00 +11°C° 0 mm 1 m/S 745 mmHg 91%
    23:00 +11°C° 0 mm 1 m/S 745 mmHg 91%

    7 Juni, Sonntag

    Zeit Temperatur Niederschläge Wind Luftdruck Luftfeuchtigkeit
    00:00 +11°C° 0 mm 1 m/S 745 mmHg 91%
    01:00 +10°C° 0 mm 1 m/S 745 mmHg 91%
    02:00 +10°C° 0 mm 1 m/S 745 mmHg 91%
    03:00 +10°C° 0 mm 1 m/S 745 mmHg 90%
    04:00 +10°C° 0 mm 1 m/S 745 mmHg 90%
    05:00 +12°C° 0 mm 1 m/S 746 mmHg 84%
    06:00 +14°C° 0 mm 2 m/S 746 mmHg 78%
    07:00 +16°C° 0 mm 2 m/S 746 mmHg 73%
    08:00 +17°C° 0 mm 2 m/S 746 mmHg 67%
    09:00 +18°C° 0 mm 2 m/S 746 mmHg 61%
    10:00 +20°C° 0 mm 3 m/S 747 mmHg 55%
    11:00 +20°C° 0.1 mm 3 m/S 746 mmHg 54%
    12:00 +21°C° 0.1 mm 3 m/S 746 mmHg 52%
    13:00 +22°C° 0.1 mm 3 m/S 746 mmHg 50%
    14:00 +22°C° 0 mm 3 m/S 746 mmHg 51%
    15:00 +23°C° 0 mm 2 m/S 746 mmHg 52%
    16:00 +23°C° 0 mm 2 m/S 746 mmHg 52%
    17:00 +21°C° 0 mm 2 m/S 746 mmHg 59%
    18:00 +20°C° 0 mm 1 m/S 747 mmHg 66%
    19:00 +19°C° 0 mm 1 m/S 747 mmHg 72%
    20:00 +18°C° 0 mm 1 m/S 747 mmHg 75%
    21:00 +16°C° 0 mm 2 m/S 747 mmHg 78%
    22:00 +15°C° 0 mm 2 m/S 747 mmHg 82%
    23:00 +15°C° 0 mm 2 m/S 747 mmHg 82%
    Mehr zeigen